DW5450 Weather Reports


Display with metric or nautical units.
time (UTC)temp
F
wind
direction
speed
MPH
gust
MPH
rain 1hr
in
rain 24hr
in
rain mn
in
humidity
%
barometer
mb
20260510190019 87 153 4.0 11.0 0.00 0.00 0.00 55 1011.0
20260510184519 88 172 4.0 9.0 0.00 0.00 0.00 50 1011.1
20260510183017 89 159 4.0 10.0 0.00 0.00 0.00 42 1011.1
20260510181516 90 150 3.0 9.0 0.00 0.00 0.00 40 1011.1
20260510180015 91 157 2.0 8.0 0.00 0.00 0.00 35 1011.1
20260510174515 90 155 2.0 7.0 0.00 0.00 0.00 37 1011.0
20260510173014 90 173 4.0 9.0 0.00 0.00 0.00 36 1011.0
20260510171513 91 150 4.0 7.0 0.00 0.00 0.00 39 1011.1
20260510170012 91 130 3.0 8.0 0.00 0.00 0.00 34 1011.1
20260510164510 92 173 2.0 7.0 0.00 0.00 0.00 28 1011.0
20260510163008 92 148 2.0 6.0 0.00 0.00 0.00 25 1010.9
20260510161504 91 113 1.0 3.0 0.00 0.00 0.00 27 1010.8
20260510160001 89 324 0.0 1.0 0.00 0.00 0.00 31 1010.8
20260510154601 86 323 0.0 1.0 0.00 0.00 0.00 28 1010.8
20260510153052 83 323 0.0 2.0 0.00 0.00 0.00 33 1010.8
20260510151551 80 324 0.0 4.0 0.00 0.00 0.00 31 1010.7
20260510150051 77 321 0.0 4.0 0.00 0.00 0.00 33 1010.5
20260510144554 74 323 0.0 3.0 0.00 0.00 0.00 36 1010.4
20260510143034 72 318 0.0 3.0 0.00 0.00 0.00 38 1010.4
20260510141532 71 328 1.0 4.0 0.00 0.00 0.00 36 1010.3
20260510140028 70 309 0.0 6.0 0.00 0.00 0.00 37 1010.2
20260510134527 69 313 2.0 6.0 0.00 0.00 0.00 37 1010.2
20260510133025 68 311 1.0 4.0 0.00 0.00 0.00 39 1010.0
20260510131523 68 302 3.0 6.0 0.00 0.00 0.00 38 1009.7
20260510130022 67 317 2.0 6.0 0.00 0.00 0.00 37 1009.6
20260510124521 66 306 1.0 4.0 0.00 0.00 0.00 39 1009.4
20260510123021 66 311 1.0 5.0 0.00 0.00 0.00 39 1009.2
20260510121525 67 321 1.0 7.0 0.00 0.00 0.00 37 1009.1
20260510120033 67 306 2.0 5.0 0.00 0.00 0.00 36 1009.1
20260510114518 66 323 2.0 5.0 0.00 0.00 0.00 38 1009.0
20260510113017 66 355 0.0 3.0 0.00 0.00 0.00 41 1009.1
20260510111517 66 355 1.0 3.0 0.00 0.00 0.00 41 1009.1
20260510110023 65 355 1.0 4.0 0.00 0.00 0.00 43 1009.1
20260510104515 65 16 0.0 1.0 0.00 0.00 0.00 45 1009.0
20260510103013 65 16 0.0 1.0 0.00 0.00 0.00 45 1009.0
20260510101513 66 16 1.0 3.0 0.00 0.00 0.00 40 1009.0
20260510100012 65 25 1.0 3.0 0.00 0.00 0.00 41 1009.0
20260510094522 66 26 0.0 2.0 0.00 0.00 0.00 44 1009.0
20260510093006 67 26 0.0 1.0 0.00 0.00 0.00 45 1008.9
20260510091506 68 26 0.0 1.0 0.00 0.00 0.00 42 1009.0
20260510090005 68 26 0.0 4.0 0.00 0.00 0.00 37 1009.0
20260510084503 67 28 0.0 3.0 0.00 0.00 0.00 40 1009.0
20260510083002 67 28 0.0 1.0 0.00 0.00 0.00 43 1009.1
20260510081628 67 28 0.0 2.0 0.00 0.00 0.00 46 1009.3
20260510080057 68 28 0.0 2.0 0.00 0.00 0.00 40 1009.4
20260510074557 69 28 0.0 1.0 0.00 0.00 0.00 44 1009.5
20260510073051 69 28 0.0 0.0 0.00 0.00 0.00 50 1009.6
20260510071548 70 28 0.0 1.0 0.00 0.00 0.00 43 1009.6
20260510070047 70 28 0.0 1.0 0.00 0.00 0.00 41 1009.6
20260510064544 69 28 0.0 2.0 0.00 0.00 0.00 41 1009.7
20260510063044 69 28 0.0 1.0 0.00 0.00 0.00 42 1009.7
20260510061544 70 28 0.0 1.0 0.00 0.00 0.00 43 1009.7
20260510060051 71 28 0.0 1.0 0.00 0.00 0.00 42 1009.7
20260510054543 72 28 0.0 1.0 0.00 0.00 0.00 40 1009.8
20260510053042 72 28 0.0 3.0 0.00 0.00 0.00 38 1009.7
20260510051603 72 42 0.0 1.0 0.00 0.00 0.00 43 1009.6
20260510050047 72 42 0.0 1.0 0.00 0.00 0.00 43 1009.4
20260510044543 73 42 0.0 0.0 0.00 0.00 0.00 44 1009.3
20260510043059 73 42 0.0 0.0 0.00 0.00 0.00 45 1009.1
20260510041546 75 42 0.0 0.0 0.00 0.00 0.00 45 1008.9
20260510040040 77 42 0.0 0.0 0.00 0.00 0.00 42 1008.8
20260510034544 79 42 0.0 1.0 0.00 0.00 0.00 35 1008.7
20260510033041 80 42 0.0 2.0 0.00 0.00 0.00 35 1008.6
20260510031607 81 42 0.0 0.0 0.00 0.00 0.00 35 1008.5
20260510030039 82 42 0.0 1.0 0.00 0.00 0.00 32 1008.3
20260510024539 82 42 0.0 2.0 0.00 0.00 0.00 31 1008.1
20260510023046 83 42 0.0 1.0 0.00 0.00 0.00 30 1008.0
20260510021542 83 42 0.0 2.0 0.00 0.00 0.00 32 1007.7
20260510020036 85 42 0.0 0.0 0.00 0.00 0.00 32 1007.5
20260510014535 86 42 0.0 0.0 0.00 0.00 0.00 28 1007.2
20260510013038 87 42 0.0 2.0 0.00 0.00 0.00 30 1007.1
20260510011543 89 32 0.0 2.0 0.00 0.00 0.00 30 1007.1
20260510010039 90 111 0.0 1.0 0.00 0.00 0.00 31 1007.1
20260510004534 90 108 0.0 2.0 0.00 0.00 0.00 29 1007.0
20260510003034 91 106 0.0 3.0 0.00 0.00 0.00 28 1006.9
20260510001532 91 98 0.0 4.0 0.00 0.00 0.00 30 1006.9
20260510000032 91 113 1.0 4.0 0.00 0.00 0.00 30 1006.9
20260509234534 91 127 1.0 4.0 0.00 0.00 0.00 31 1007.0
20260509233031 90 96 2.0 7.0 0.00 0.00 0.00 34 1006.9
20260509231530 90 131 2.0 8.0 0.00 0.00 0.00 38 1007.0
20260509230029 90 94 3.0 11.0 0.00 0.00 0.00 35 1007.0
20260509224528 90 126 2.0 9.0 0.00 0.00 0.00 32 1007.1
20260509223029 90 188 2.0 8.0 0.00 0.00 0.00 37 1007.2
20260509221529 90 124 2.0 11.0 0.00 0.00 0.00 41 1007.4
20260509220023 91 122 4.0 11.0 0.00 0.00 0.00 39 1007.5
20260509214521 92 106 5.0 13.0 0.00 0.00 0.00 29 1007.7
20260509213019 93 131 2.0 12.0 0.00 0.00 0.00 25 1007.8
20260509211539 93 172 5.0 13.0 0.00 0.00 0.00 21 1007.9
20260509210016 93 151 3.0 14.0 0.00 0.00 0.00 23 1008.2
20260509204513 93 169 5.0 12.0 0.00 0.00 0.00 21 1008.4
20260509203024 93 169 3.0 12.0 0.00 0.00 0.00 21 1008.5
20260509201508 92 148 5.0 13.0 0.00 0.00 0.00 22 1008.8
20260509200008 92 202 8.0 17.0 0.00 0.00 0.00 20 1009.1
20260509194507 92 180 4.0 15.0 0.00 0.00 0.00 23 1009.3
20260509193006 92 156 4.0 13.0 0.00 0.00 0.00 23 1009.4
20260509191505 92 113 2.0 12.0 0.00 0.00 0.00 25 1009.3